Regional Weather Roundup
Issued by NWS Raleigh/Durham, NC

Home | Current Version | Previous Version | Text Only | Print | Product List | Glossary On
Versions: 1 2 3 4 5 6 7 8 9 10 11 12 13 14 15 16 17 18 19 20 21 22 23 24 25 26 27 28 29 30 31 32 33 34 35 36 37 38 39 40 41 42 43 44 45 46 47 48 49 50
000
ASUS42 KRAH 041210
RWRRAH
NORTH CAROLINA WEATHER ROUNDUP
NATIONAL WEATHER SERVICE RALEIGH NC
800 AM EDT FRI SEP 04 2015

NOTE: "FAIR" INDICATES FEW OR NO CLOUDS BELOW 12,000 FEET WITH NO
SIGNIFICANT WEATHER AND/OR OBSTRUCTIONS TO VISIBILITY.

NCZ001-053-055-056-065-067-041300-
WESTERN NORTH CAROLINA

CITY           SKY/WX    TMP DP  RH WIND       PRES   REMARKS
ASHEVILLE      SUNNY     66  62  87 NW5       30.11R
JEFFERSON      SUNNY     67  56  69 CALM      30.15R
MORGANTON      SUNNY     65  65 100 CALM      30.09R FOG
HICKORY        SUNNY     69  65  86 NW6       30.03R
RUTHERFORDTON  SUNNY     71  65  80 CALM      30.05R
MOUNT AIRY     SUNNY     70  67  92 CALM      30.06R FOG
BOONE            N/A     57  57 100 CALM      30.16S FOG
$$

NCZ021-022-025-041-071-084-088-041300-
CENTRAL NORTH CAROLINA

CITY           SKY/WX    TMP DP  RH WIND       PRES   REMARKS
CHARLOTTE      SUNNY     72  66  81 N5        30.01R
GREENSBORO     MOSUNNY   74  67  78 N3        30.01R
WINSTON-SALEM  SUNNY     73  66  78 N5        30.03R
RALEIGH-DURHAM MOSUNNY   73  69  87 CALM      29.97R
FORT BRAGG     SUNNY     73  70  89 N1        29.95R
FAYETTEVILLE   SUNNY     74  71  91 CALM      29.96R FOG
BURLINGTON     SUNNY     70  70 100 W5        29.99R FOG
LAURINBURG     SUNNY     72  68  87 N3        29.97R FOG
$$

NCZ011-015-027-028-043-044-047-080-103-041300-
NORTHEASTERN NORTH CAROLINA

CITY           SKY/WX    TMP DP  RH WIND       PRES   REMARKS
ROCKY MT-WILSO SUNNY     74  72  93 CALM      29.97R FOG
GREENVILLE     SUNNY     72  72 100 CALM      29.97R FOG
WASHINGTON     SUNNY     73  70  92 CALM      29.95R
ELIZABETH CITY SUNNY     75  73  93 CALM      29.94R FOG
MANTEO         SUNNY     78  75  92 NW3       29.94R
CAPE HATTERAS  SUNNY     80  72  76 N3        29.94R
$$

NCZ078-087-090-091-093-098-101-041300-
SOUTHEASTERN NORTH CAROLINA

CITY           SKY/WX    TMP DP  RH WIND       PRES   REMARKS
LUMBERTON      SUNNY     73  70  90 CALM      29.95R
GOLDSBORO      SUNNY     73  71  96 CALM      29.95R
KINSTON        SUNNY     72  70  94 CALM      29.96R FOG
KENANSVILLE      N/A     71  70  98 CALM      29.97R FOG
NEW BERN       SUNNY     74  71  91 CALM      29.97R
CHERRY POINT   SUNNY     75  72  90 CALM      29.96R
BEAUFORT       SUNNY     77  76  96 NW6       29.95R
JACKSONVILLE   SUNNY     73  70  90 CALM      29.95R
WILMINGTON     SUNNY     74  71  91 CALM      29.95R
$$



USA.gov is the U.S. government's official web portal to all federal, state and local government web resources and services.